Time,TemperatureF,DewpointF,PressureIn,WindDirection,WindDirectionDegrees,WindSpeedMPH,WindSpeedGustMPH,Humidity,HourlyPrecipIn,Conditions,Clouds,dailyrainin,SoftwareType,DateUTC
2013-05-04 00:14:00,59.0,52.0,24.51,ENE,75,2.0,8.0,78,0.00,,,0.00,weatherlink.com 1.10,2013-05-04 02:14:00,
2013-05-04 00:30:00,59.0,52.0,24.51,ENE,67,3.0,9.0,77,0.00,,,0.00,weatherlink.com 1.10,2013-05-04 02:30:00,
2013-05-04 00:45:00,59.0,52.0,23.60,East,83,7.0,10.0,77,0.00,,,0.00,weatherlink.com 1.10,2013-05-04 02:45:00,
2013-05-04 01:00:00,59.0,52.0,30.14,ENE,78,4.0,9.0,77,0.00,,,0.00,weatherlink.com 1.10,2013-05-04 03:00:00,
2013-05-04 01:16:00,58.4,52.0,30.14,East,98,6.0,10.0,78,0.00,,,0.00,weatherlink.com 1.10,2013-05-04 03:16:00,
2013-05-04 01:31:00,58.4,52.0,24.50,East,96,3.0,9.0,78,0.00,,,0.00,weatherlink.com 1.10,2013-05-04 03:31:00,
2013-05-04 01:46:00,58.1,51.0,24.50,East,88,5.0,11.0,76,0.00,,,0.00,weatherlink.com 1.10,2013-05-04 03:46:00,
2013-05-04 02:02:00,57.5,50.0,24.50,East,86,3.0,13.0,75,0.00,,,0.00,weatherlink.com 1.10,2013-05-04 04:02:00,
2013-05-04 02:17:00,57.1,49.0,24.50,ENE,75,5.0,10.0,75,0.00,,,0.00,weatherlink.com 1.10,2013-05-04 04:17:00,
2013-05-04 02:33:00,56.6,48.0,0.00,East,80,2.0,16.0,73,0.00,,,0.00,weatherlink.com 1.10,2013-05-04 04:33:00,
2013-05-04 02:48:00,56.1,47.0,0.00,East,86,6.0,17.0,72,0.00,,,0.00,weatherlink.com 1.10,2013-05-04 04:48:00,
2013-05-04 03:04:00,55.5,47.0,24.51,East,92,2.0,14.0,72,0.00,,,0.00,weatherlink.com 1.10,2013-05-04 05:04:00,
2013-05-04 03:19:00,54.8,46.0,30.15,ENE,60,9.0,13.0,73,0.00,,,0.00,weatherlink.com 1.10,2013-05-04 05:19:00,
2013-05-04 03:35:00,54.3,46.0,29.22,ESE,117,10.0,15.0,73,0.00,,,0.00,weatherlink.com 1.10,2013-05-04 05:35:00,
2013-05-04 03:50:00,53.8,46.0,30.14,East,99,3.0,13.0,74,0.00,,,0.00,weatherlink.com 1.10,2013-05-04 05:50:00,
2013-05-04 04:05:00,53.3,46.0,22.48,ENE,66,7.0,10.0,76,0.00,,,0.00,weatherlink.com 1.10,2013-05-04 06:05:00,
2013-05-04 04:21:00,52.6,45.0,22.48,ESE,102,4.0,12.0,76,0.00,,,0.00,weatherlink.com 1.10,2013-05-04 06:21:00,
2013-05-04 04:36:00,52.0,45.0,30.13,East,95,5.0,14.0,78,0.00,,,0.00,weatherlink.com 1.10,2013-05-04 06:36:00,
2013-05-04 04:52:00,51.5,45.0,30.13,ESE,107,9.0,15.0,79,0.00,,,0.00,weatherlink.com 1.10,2013-05-04 06:52:00,
2013-05-04 05:07:00,51.0,45.0,30.13,ESE,113,3.0,10.0,80,0.00,,,0.00,weatherlink.com 1.10,2013-05-04 07:07:00,
2013-05-04 05:22:00,50.8,45.0,30.13,ENE,76,3.0,13.0,80,0.00,,,0.00,weatherlink.com 1.10,2013-05-04 07:22:00,
2013-05-04 05:38:00,50.4,44.0,30.14,ENE,60,13.0,16.0,78,0.00,,,0.00,weatherlink.com 1.10,2013-05-04 07:38:00,
2013-05-04 05:53:00,49.8,44.0,24.51,ESE,105,3.0,11.0,79,0.00,,,0.00,weatherlink.com 1.10,2013-05-04 07:53:00,
2013-05-04 06:08:00,49.4,43.0,30.14,NE,55,3.0,6.0,80,0.00,,,0.00,weatherlink.com 1.10,2013-05-04 08:08:00,
2013-05-04 06:24:00,49.3,43.0,29.22,East,82,3.0,8.0,80,0.00,,,0.00,weatherlink.com 1.10,2013-05-04 08:24:00,
2013-05-04 06:39:00,49.1,43.0,30.14,East,83,3.0,10.0,80,0.00,,,0.00,weatherlink.com 1.10,2013-05-04 08:39:00,
2013-05-04 06:54:00,48.9,43.0,30.14,ENE,78,5.0,11.0,80,0.00,,,0.00,weatherlink.com 1.10,2013-05-04 08:54:00,
2013-05-04 07:09:00,48.7,43.0,30.14,ENE,71,3.0,8.0,81,0.00,,,0.00,weatherlink.com 1.10,2013-05-04 09:09:00,
2013-05-04 07:25:00,48.7,43.0,30.15,ENE,67,7.0,8.0,81,0.00,,,0.00,weatherlink.com 1.10,2013-05-04 09:25:00,
2013-05-04 07:40:00,48.7,43.0,28.20,ENE,63,7.0,9.0,81,0.00,,,0.00,weatherlink.com 1.10,2013-05-04 09:40:00,
2013-05-04 07:55:00,48.7,43.0,30.14,East,89,5.0,8.0,82,0.00,,,0.00,weatherlink.com 1.10,2013-05-04 09:55:00,
2013-05-04 08:11:00,48.8,44.0,30.14,ENE,68,2.0,7.0,82,0.00,,,0.00,weatherlink.com 1.10,2013-05-04 10:11:00,
2013-05-04 08:26:00,48.8,44.0,30.14,ENE,60,7.0,7.0,82,0.00,,,0.00,weatherlink.com 1.10,2013-05-04 10:26:00,
2013-05-04 08:41:00,48.8,44.0,30.15,East,83,1.0,7.0,83,0.00,,,0.00,weatherlink.com 1.10,2013-05-04 10:41:00,
2013-05-04 08:57:00,48.9,44.0,30.14,ENE,71,4.0,7.0,83,0.00,,,0.00,weatherlink.com 1.10,2013-05-04 10:57:00,
2013-05-04 09:12:00,48.9,44.0,30.15,ENE,71,5.0,9.0,83,0.00,,,0.00,weatherlink.com 1.10,2013-05-04 11:12:00,
2013-05-04 09:27:00,48.8,44.0,30.15,East,82,3.0,9.0,83,0.00,,,0.00,weatherlink.com 1.10,2013-05-04 11:27:00,
2013-05-04 09:43:00,48.8,44.0,30.15,ESE,103,8.0,9.0,84,0.00,,,0.00,weatherlink.com 1.10,2013-05-04 11:43:00,
2013-05-04 09:59:00,48.8,44.0,30.15,East,96,5.0,10.0,84,0.00,,,0.00,weatherlink.com 1.10,2013-05-04 11:59:00,
2013-05-04 10:14:00,48.9,44.0,30.15,East,91,6.0,12.0,84,0.00,,,0.00,weatherlink.com 1.10,2013-05-04 12:14:00,
2013-05-04 10:29:00,49.0,44.0,30.15,ENE,71,3.0,11.0,84,0.00,,,0.00,weatherlink.com 1.10,2013-05-04 12:29:00,
2013-05-04 10:45:00,48.9,44.0,30.15,East,99,3.0,12.0,84,0.00,,,0.00,weatherlink.com 1.10,2013-05-04 12:45:00,
2013-05-04 11:01:00,49.0,44.0,30.15,East,83,5.0,10.0,84,0.00,,,0.00,weatherlink.com 1.10,2013-05-04 13:01:00,
2013-05-04 11:16:00,49.0,45.0,30.15,East,99,2.0,9.0,85,0.00,,,0.00,weatherlink.com 1.10,2013-05-04 13:16:00,
2013-05-04 11:31:00,49.2,45.0,30.15,ENE,78,2.0,9.0,85,0.00,,,0.00,weatherlink.com 1.10,2013-05-04 13:31:00,
2013-05-04 11:47:00,49.3,45.0,30.14,ENE,66,4.0,10.0,84,0.00,,,0.00,weatherlink.com 1.10,2013-05-04 13:47:00,
2013-05-04 12:02:00,49.7,45.0,30.14,East,85,1.0,7.0,85,0.00,,,0.00,weatherlink.com 1.10,2013-05-04 14:02:00,
2013-05-04 12:17:00,50.0,46.0,30.14,ESE,115,2.0,7.0,85,0.00,,,0.00,weatherlink.com 1.10,2013-05-04 14:17:00,
2013-05-04 12:33:00,50.3,46.0,30.14,ENE,76,4.0,9.0,84,0.00,,,0.00,weatherlink.com 1.10,2013-05-04 14:33:00,
2013-05-04 12:49:00,50.3,46.0,30.14,ENE,60,4.0,10.0,84,0.00,,,0.00,weatherlink.com 1.10,2013-05-04 14:49:00,
2013-05-04 13:04:00,50.5,46.0,30.14,ENE,69,5.0,11.0,85,0.00,,,0.00,weatherlink.com 1.10,2013-05-04 15:04:00,
2013-05-04 13:19:00,50.3,46.0,30.14,East,85,7.0,12.0,85,0.00,,,0.00,weatherlink.com 1.10,2013-05-04 15:19:00,
2013-05-04 13:35:00,50.3,46.0,30.14,East,88,6.0,11.0,86,0.00,,,0.00,weatherlink.com 1.10,2013-05-04 15:35:00,
2013-05-04 13:50:00,49.8,46.0,30.14,ENE,64,5.0,14.0,88,0.00,,,0.00,weatherlink.com 1.10,2013-05-04 15:50:00,
2013-05-04 14:05:00,49.9,47.0,30.14,East,81,2.0,10.0,90,0.00,,,0.00,weatherlink.com 1.10,2013-05-04 16:05:00,
2013-05-04 14:21:00,50.2,48.0,30.13,ENE,70,4.0,5.0,92,0.00,,,0.00,weatherlink.com 1.10,2013-05-04 16:21:00,
2013-05-04 14:36:00,51.2,48.0,30.12,ENE,64,4.0,9.0,89,0.00,,,0.00,weatherlink.com 1.10,2013-05-04 16:36:00,
2013-05-04 14:51:00,52.3,49.0,30.11,ESE,117,7.0,11.0,87,0.00,,,0.00,weatherlink.com 1.10,2013-05-04 16:51:00,
2013-05-04 15:06:00,53.4,49.0,30.11,East,95,3.0,11.0,85,0.00,,,0.00,weatherlink.com 1.10,2013-05-04 17:06:00,
2013-05-04 15:22:00,54.1,48.0,30.10,NE,51,5.0,15.0,81,0.00,,,0.00,weatherlink.com 1.10,2013-05-04 17:22:00,
2013-05-04 15:37:00,55.3,50.0,30.10,East,80,6.0,11.0,81,0.00,,,0.00,weatherlink.com 1.10,2013-05-04 17:37:00,
2013-05-04 15:52:00,55.1,48.0,30.10,NNE,21,7.0,9.0,78,0.00,,,0.00,weatherlink.com 1.10,2013-05-04 17:52:00,
2013-05-04 16:08:00,55.4,48.0,30.09,ENE,68,4.0,12.0,77,0.00,,,0.00,weatherlink.com 1.10,2013-05-04 18:08:00,
2013-05-04 16:23:00,55.0,48.0,30.09,East,92,2.0,11.0,78,0.00,,,0.00,weatherlink.com 1.10,2013-05-04 18:23:00,
2013-05-04 16:38:00,55.1,48.0,30.09,ENE,78,7.0,10.0,77,0.00,,,0.00,weatherlink.com 1.10,2013-05-04 18:38:00,
2013-05-04 16:54:00,56.4,49.0,30.09,East,92,5.0,11.0,76,0.00,,,0.00,weatherlink.com 1.10,2013-05-04 18:54:00,
2013-05-04 17:09:00,56.8,50.0,30.09,East,84,3.0,10.0,77,0.00,,,0.00,weatherlink.com 1.10,2013-05-04 19:09:00,
2013-05-04 17:24:00,58.7,52.0,30.09,East,80,8.0,9.0,77,0.00,,,0.00,weatherlink.com 1.10,2013-05-04 19:24:00,
2013-05-04 17:40:00,58.4,49.0,30.07,ENE,77,7.0,14.0,72,0.00,,,0.00,weatherlink.com 1.10,2013-05-04 19:40:00,
2013-05-04 17:55:00,58.4,49.0,30.05,NE,46,8.0,13.0,71,0.00,,,0.00,weatherlink.com 1.10,2013-05-04 19:55:00,
2013-05-04 18:10:00,58.6,49.0,30.05,ENE,59,7.0,12.0,70,0.00,,,0.00,weatherlink.com 1.10,2013-05-04 20:10:00,
2013-05-04 18:26:00,59.5,49.0,30.05,East,99,8.0,14.0,68,0.00,,,0.00,weatherlink.com 1.10,2013-05-04 20:26:00,
2013-05-04 18:41:00,59.5,49.0,30.05,ESE,113,3.0,13.0,68,0.00,,,0.00,weatherlink.com 1.10,2013-05-04 20:41:00,
2013-05-04 18:56:00,59.1,49.0,30.05,ESE,114,2.0,11.0,68,0.00,,,0.00,weatherlink.com 1.10,2013-05-04 20:56:00,
2013-05-04 19:11:00,59.0,49.0,30.05,East,92,6.0,16.0,69,0.00,,,0.00,weatherlink.com 1.10,2013-05-04 21:11:00,
2013-05-04 19:27:00,59.0,50.0,30.05,ESE,115,4.0,14.0,71,0.00,,,0.00,weatherlink.com 1.10,2013-05-04 21:27:00,
2013-05-04 19:42:00,59.0,48.0,30.05,East,97,5.0,12.0,68,0.00,,,0.00,weatherlink.com 1.10,2013-05-04 21:42:00,
2013-05-04 19:57:00,59.0,49.0,30.04,SE,128,5.0,11.0,69,0.00,,,0.00,weatherlink.com 1.10,2013-05-04 21:57:00,
2013-05-04 20:12:00,58.9,49.0,30.04,NE,53,6.0,11.0,70,0.00,,,0.00,weatherlink.com 1.10,2013-05-04 22:12:00,
2013-05-04 20:28:00,58.8,49.0,31.80,East,83,9.0,12.0,71,0.00,,,0.00,weatherlink.com 1.10,2013-05-04 22:28:00,
2013-05-04 20:43:00,58.5,49.0,30.04,ENE,78,3.0,13.0,71,0.00,,,0.00,weatherlink.com 1.10,2013-05-04 22:43:00,
2013-05-04 20:58:00,58.2,49.0,30.04,East,90,17.0,17.0,72,0.00,,,0.00,weatherlink.com 1.10,2013-05-04 22:58:00,
2013-05-04 21:14:00,58.0,49.0,30.04,East,86,8.0,16.0,72,0.00,,,0.00,weatherlink.com 1.10,2013-05-04 23:14:00,
2013-05-04 21:29:00,57.7,49.0,30.03,East,95,5.0,14.0,73,0.00,,,0.00,weatherlink.com 1.10,2013-05-04 23:29:00,
2013-05-04 21:44:00,57.1,49.0,30.03,East,90,6.0,17.0,75,0.00,,,0.00,weatherlink.com 1.10,2013-05-04 23:44:00,
2013-05-04 22:00:00,56.7,49.0,30.03,ENE,67,9.0,18.0,76,0.00,,,0.00,weatherlink.com 1.10,2013-05-05 00:00:00,
2013-05-04 22:15:00,56.4,49.0,30.03,ENE,61,9.0,13.0,76,0.00,,,0.00,weatherlink.com 1.10,2013-05-05 00:15:00,
2013-05-04 22:30:00,56.2,49.0,30.03,East,80,5.0,13.0,76,0.00,,,0.00,weatherlink.com 1.10,2013-05-05 00:30:00,
2013-05-04 22:46:00,55.8,49.0,31.81,ENE,71,12.0,12.0,77,0.00,,,0.00,weatherlink.com 1.10,2013-05-05 00:46:00,
2013-05-04 23:01:00,55.5,48.0,27.05,NE,55,9.0,15.0,77,0.00,,,0.00,weatherlink.com 1.10,2013-05-05 01:01:00,
2013-05-04 23:16:00,55.0,48.0,27.05,East,82,3.0,15.0,78,0.00,,,0.00,weatherlink.com 1.10,2013-05-05 01:16:00,
2013-05-04 23:32:00,54.7,48.0,24.40,ENE,78,3.0,14.0,78,0.00,,,0.00,weatherlink.com 1.10,2013-05-05 01:32:00,
2013-05-04 23:47:00,54.6,48.0,24.40,ENE,75,3.0,13.0,79,0.00,,,0.00,weatherlink.com 1.10,2013-05-05 01:47:00,